Regional Weather Roundup
Issued by NWS Upton, NY

Home | Current Version | Previous Version | Text Only | Print | Product List | Glossary On
Versions: 1 2 3 4 5 6 7 8 9 10 11 12 13 14 15 16 17 18 19 20 21 22 23 24 25 26 27 28 29 30 31 32 33 34 35 36 37 38 39 40 41 42 43 44 45 46 47 48 49 50
700
ASUS41 KOKX 170708
RWROKX

REGIONAL WEATHER ROUNDUP
NATIONAL WEATHER SERVICE NEW YORK NY
200 AM EST TUE JAN 17 2017

NOTE: "FAIR" INDICATES FEW OR NO CLOUDS BELOW 12,000 FEET WITH NO
SIGNIFICANT WEATHER AND/OR OBSTRUCTIONS TO VISIBILITY.

NYZ071-072-176-178-NJZ106-104-170800-
NEW YORK CITY METRO AREA

CITY           SKY/WX    TMP DP  RH WIND       PRES   REMARKS
Central Park   CLOUDY    40  26  57 VRB5      30.28F
Wall St Helipt CLOUDY    40  28  62 W9        30.28F WCI  34
Bronx Bot Gard NOT AVBL
LaGuardia APRT CLOUDY    42  26  53 SW7       30.26F
Kennedy INTL   CLOUDY    41  26  55 W9        30.28F
Breezy Point     N/A     39 N/A N/A W8          N/A  WCI  34
Newark/Liberty CLOUDY    40  25  55 SW7       30.27F
Teterboro      CLOUDY    40  27  59 SW6       30.26S
$$

NYZ177-179-078>081-170800-
LONG ISLAND NEW YORK

CITY           SKY/WX    TMP DP  RH WIND       PRES   REMARKS
Jones Beach      N/A     39 N/A N/A W10         N/A  WCI  32
Matinecock PT    N/A     41 N/A N/A SW12        N/A
Farmingdale    CLOUDY    40  27  59 W9        30.27S WCI  34
MacArthur/ISP  CLOUDY    39  28  64 W7        30.25F WCI  34
Shirley        CLOUDY    38  28  67 SW7       30.26F WCI  33
Westhampton    CLOUDY    39  27  62 SW12      30.27F WCI  32
Southampton    NOT AVBL
Bridgehampton  NOT AVBL
East Hampton   CLOUDY    38  26  61 W8        30.25S WCI  33
Montauk          N/A     40  30  67 W12       30.25F WCI  33
$$

NYZ052-065-067-170800-
HUDSON VALLEY

CITY           SKY/WX    TMP DP  RH WIND       PRES   REMARKS
White Plains   MOCLDY    38  24  57 W5        30.23F WCI  34
Newburgh       CLOUDY    36  28  75 W6        30.24F WCI  31
Montgomery     CLOUDY    36  27  69 SW7       30.22F WCI  30
Poughkeepsie   CLOUDY    36  26  67 SW6       30.24S WCI  31
Albany         CLOUDY    22  17  81 CALM      30.25R
$$

NJZ001-105-106-008-010-013-015-019>022-104-170800-
NEW JERSEY

CITY           SKY/WX    TMP DP  RH WIND       PRES   REMARKS
Newark/Liberty CLOUDY    40  25  55 SW7       30.27F
Teterboro      CLOUDY    40  27  59 SW6       30.26S
Caldwell       CLOUDY    38  25  59 VRB3      30.26F
Somerville     CLOUDY    37  27  67 CALM      30.25F
Linden         CLOUDY    39  25  57 CALM      30.28F
Sussex         CLOUDY    35  27  72 SW3       30.23F
Andover          N/A     35  25  66 S3        30.24F
Trenton        CLOUDY    38  26  62 CALM      30.26F
Millville      CLOUDY    35  31  85 E3        30.28F
Atlantic City  CLOUDY    37  26  64 CALM      30.28F
Wrightstown    CLOUDY    37  26  63 S3        30.25F
Toms River     CLOUDY    37  27  67 CALM      30.29F
Belmar         CLOUDY    37  25  61 S5        30.28F WCI  33
$$

PAZ047>061-062-071-170800-
EASTERN PENNSYLVANIA

CITY           SKY/WX    TMP DP  RH WIND       PRES   REMARKS
Philadelphia   CLOUDY    39  28  64 CALM      30.29F
Allentown      CLOUDY    37  25  61 CALM      30.25F
Scranton       CLOUDY    35  27  72 CALM      30.22S
$$

CTZ002-004>006-009-010-012-RIZ004-006-007-MAZ004-011-015-170800-
SOUTHERN NEW ENGLAND
 IN CT

CITY           SKY/WX    TMP DP  RH WIND       PRES   REMARKS
Bradley INTL   CLOUDY    31  23  72 CALM      30.23F
Hartford       CLOUDY    33  26  75 CALM      30.24F
Danbury        CLOUDY    36  25  64 W3        30.24F
Wtrbury/Oxford CLOUDY    36  23  60 W5        30.22F WCI  32
Bridgeport     CLOUDY    39  28  64 W5        30.25S
Meriden        CLOUDY    34  28  79 SE3       30.24F
New Haven      CLOUDY    37  30  75 SW3       30.25S
Chester        PTSUNNY   36  27  69 VRB5      30.23S WCI  32
Groton         CLOUDY    38  29  70 W8        30.23F WCI  32
Wilimantic     CLOUDY    31  26  82 CALM      30.23F

 IN RI

CITY           SKY/WX    TMP DP  RH WIND       PRES   REMARKS
Providence     PTCLDY    35  25  66 SW3       30.23S
Block Island   NOT AVBL
Westerly       CLOUDY    39  28  64 VRB6      30.24S WCI  35
 IN MA

CITY           SKY/WX    TMP DP  RH WIND       PRES   REMARKS
Boston         CLEAR     33  21  61 SW8       30.20S WCI  26
Worcester      CLOUDY    31  17  56 W13       30.16S WCI  21
Westfield      CLOUDY    30  24  78 CALM      30.22F
Provincetown   CLEAR     37  27  67 W14       30.20S WCI  28
Nantucket      CLOUDY    40  31  70 W14       30.22S WCI  32
$$

ANZ330-335-338-340-345-350-353-355-170800-
COASTAL MARINE OBSERVATIONS


STATION/POSITION TIME  SKY/WX   TEMP    WIND        PRES    VSBY  WAVE
                                AIR SEA DIR/SP/G                  HT/PER
                 (UTC)          (F)     (DEG/KT/KT) (MB)    (MI)  (FT/S)
NY HARB ENTRANCE 0550            41 44  240/ 14/ 16 1025.6          2/10
20 S FIRE ISLAND 0650            42 45  260/ 14/ 16 1024.9          2/ 4
GREAT SOUTH BAY  NOT AVBL
23 SSW MONTAUK P 0550            43 48  260/ 17/ 21 1024.7          3/ 4
15 E BARNEGAT LI 0630               44                N/A           1/ 8
HUDSON CANYON    0550            46 53              1025.8          2/10
KINGS POINT      0636                               1024.9
EXECUTION ROCKS  0645            40     230/  8/ 10   N/A
CENTRAL LI SOUND 0615            40     250/ 10/ 12   N/A           1/ 4
EASTERN LI SOUND NOT AVBL
ROBBINS REEF     0648                   260/  7/  8 1025.1
$$


>>>>>>>>>>>>>>>>>>>>>>>>>>>> KEY <<<<<<<<<<<<<<<<<<<<<<<<<<<
>                                                          <
>     SKY/WX - Sky Condition/Present Weather               <
>     TMP    - Temperature in Fahrenheit                   <
>     DP     - Dew Point in Fahrenheit                     <
>     RH     - Relative Humidity in Percent                <
>     WIND   - Direction (from) and Speed in MPH           <
>     PRES   - Mean Sea Level Pressure (inches of Hg)      <
>     WCI    - Wind Chill Index                            <
>     VSB    - VISIBILITY IN MILES                         <
>     HX     - HEAT INDEX                                  <
>     TC     - TEMPERATURE IN CELSIUS                      <
>     VRB    - VARIABLE WIND DIRECTION                     <
>                                                          <
>>>>>>>>>>>>>>>>>>>>>>>>>>>> KEY <<<<<<<<<<<<<<<<<<<<<<<<<<<




USA.gov is the U.S. government's official web portal to all federal, state and local government web resources and services.